METEOR 2-8 DEB

Satellite information

Favourite Embed

Satellite Type and Status

DEBRISIN ORBIT

Key statistics

Satellite METEOR 2-8 DEB at a glance.

Uptime

15970

Days in orbit

Revolutions

≈ 14.3

Per day

Orbit

LEO

Low Earth Orbit

Inclination

82.5

Latest

Satellite identification and parameters

Extended collection of information and parameters for METEOR 2-8 DEB.

Object identification

Identified? True

Debris? True

Object name: METEOR 2-8 DEB

International designator: 1982-025AR

Object number (NORAD): 36355

Object ID (CCSDS): 36355

Country: COMMONWEALTH OF INDEPENDENT STATES (CIS)

Current information (Y/N): Y

RCS size: SMALL

Orbital parameters

Period: 100.371 minutes

Inclination: 82.5141 deg

SMA: 7154.294 km

Apoapsis: 785.705 km

Periapsis: 766.612 km

RAAN: 338.5136 deg

Eccentricy: 0.00133437

Argument of periapsis: 277.3057 deg

Mean anomaly: 82.6614 deg

Mean motion: 14.3467193 rev/day

Mean motion (dot): 0.0000691 rev/day2

B* drag term: 0.0024341359 1/REarth

Two-line elements (TLE)

Creation date: Nov. 30, 2025, 5:58 p.m.

Reference frame: TEME

Reference center: EARTH

Epoch: Nov. 30, 2025, 7:49 a.m. UTC

TLE line 0: 0 METEOR 2-8 DEB

TLE line 1: 1 36355U 82025AR 25334.32634708 .00006910 00000-0 24341-2 0 9991

TLE line 2: 2 36355 82.5141 338.5136 0013344 277.3057 82.6614 14.34671930183366

Live tracking on map

Real-time ground track for satellite METEOR 2-8 DEB.

In-orbit conjunctions

A list of the most updated potential collisions computed for object METEOR 2-8 DEB.

Target Orbit TCA Probability of collision Miss distance Type
COSMOS 614 LEO 2025-06-27 05:56:34 0.0001479363 341.0 (m) PAYLOAD
ERS 1 SSO 2025-02-06 14:08:02 0.0001020678 899.0 (m) PAYLOAD
CZ-6A DEB SSO 2024-07-28 20:48:49 0.0001068138 202.0 (m) DEBRIS

Associated space launch

Second generation soviet meteorological satellite

METEOR 2-8 DEB was lifted into orbit during the mission ‘Tsiklon-3 | Meteor-2 8’, on board a Tsiklon-3 space rocket.

The launch took place on March 25, 1982, 9:50 a.m. from 32/1.

For more information about the launch, click the button.

Launch to space Tsiklon-3 | Meteor-2 8
Tsiklon-3 | Meteor-2 8

Agency: N/A

Status: Launch Successful

Launch date: March 25, 1982, 9:50 a.m. UTC

Rocket: Tsiklon-3

Launch pad: 32/1

Location: Plesetsk Cosmodrome, Russian Federation

...

Latest news about this satellite

There are no fresh news available about this satellite. Check back as we update our databases every day.


Newsletter sign-up

Weekly statistics, charts and insights to help you stay on top of the space industry.